Sexton Summit, OR

4:51 AM PDT on April 22, 2018 (GMT -0700)
Sexton Summit

Weather History for KSXT - May, 2014

Change the Weather History Date:

Friday, May 2, 2014

  Actual Average Record
Temperature  
Mean Temperature 57 °F -  
Max Temperature 70 °F 53 °F 75 °F (2004)
Min Temperature 45 °F 35 °F 28 °F (2001)
Degree Days  
Heating Degree Days 8    
Growing Degree Days 7 (Base 50)    
Moisture  
Dew Point 33 °F    
Average Humidity 44    
Maximum Humidity 77    
Minimum Humidity 25    
Precipitation  
Precipitation 0.00 in - - ()
Sea Level Pressure  
Sea Level Pressure 30.00 in    
Wind  
Wind Speed 7 mph (SW)    
Max Wind Speed 10 mph    
Max Gust Speed 17 mph    
Visibility 10 miles    
Events      
Averages and records for this station are not official NWS values.
T = Trace of Precipitation, MM = Missing Value Source: NWS Daily Summary

Daily Weather History Graph

Daily Weather History Graph

Search for Another Location

Airport or City:

Astronomy

May. 02, 2014 Rise Set
Actual Time 6:06 AM PDT 8:14 PM PDT
Civil Twilight 5:35 AM PDT 8:45 PM PDT
Nautical Twilight 4:57 AM PDT 9:24 PM PDT
Astronomical Twilight 4:16 AM PDT 10:06 PM PDT
Moon 8:47 AM PDT (5/2) 11:42 PM PDT (5/2)
Length of Visible Light 15h 10m
Length of Day
14h 08m
Waxing Crescent, 13% of the Moon is Illuminated
May 2
Waxing Crescent
May 6
First Quarter
May 14
Full
May 21
Last Quarter
May 28
New

Hourly Weather History & Observations

Time (PDT) Temp. Windchill Dew Point Humidity Pressure Visibility Wind Dir Wind Speed Gust Speed Precip Events Conditions
12:56 AM 57.9 °F - 23.0 °F 26% 30.06 in 10.0 mi West 6.9 mph - N/A   Clear
1:56 AM 57.9 °F - 23.0 °F 26% 30.05 in 10.0 mi SW 8.1 mph - N/A   Clear
2:56 AM 55.0 °F - 24.1 °F 30% 30.03 in 10.0 mi South 8.1 mph - N/A   Clear
3:56 AM 55.0 °F - 24.1 °F 30% 30.02 in 10.0 mi SSW 10.4 mph - N/A   Clear
4:56 AM 54.0 °F - 25.0 °F 33% 30.01 in 10.0 mi SSW 10.4 mph - N/A   Clear
5:56 AM 54.0 °F - 26.1 °F 34% 30.01 in 10.0 mi SW 6.9 mph - N/A   Clear
6:56 AM 54.0 °F - 26.1 °F 34% 30.03 in 10.0 mi WSW 4.6 mph - N/A   Clear
7:56 AM 55.0 °F - 28.0 °F 35% 30.04 in 10.0 mi SSW 4.6 mph - N/A   Clear
8:56 AM 57.0 °F - 30.0 °F 36% 30.04 in 10.0 mi South 5.8 mph - N/A   Clear
9:56 AM 59.0 °F - 30.0 °F 33% 30.03 in 10.0 mi South 8.1 mph - N/A   Clear
10:56 AM 60.1 °F - 33.1 °F 36% 30.02 in 10.0 mi Variable 5.8 mph - N/A   Clear
11:56 AM 62.1 °F - 28.9 °F 29% 30.01 in 10.0 mi Variable 4.6 mph - N/A   Clear
12:56 PM 64.9 °F - 30.0 °F 27% 29.99 in 10.0 mi South 9.2 mph - N/A   Clear
1:56 PM 66.0 °F - 34.0 °F 30% 29.97 in 10.0 mi Variable 6.9 mph - N/A   Clear
2:56 PM 69.1 °F - 37.0 °F 31% 29.95 in 10.0 mi Variable 3.5 mph - N/A   Clear
3:56 PM 69.1 °F - 32.0 °F 25% 29.94 in 10.0 mi Variable 5.8 mph - N/A   Clear
4:56 PM 66.0 °F - 30.0 °F 26% 29.94 in 10.0 mi North - - N/A   Clear
5:56 PM 63.0 °F - 37.0 °F 38% 29.94 in 10.0 mi Variable 6.9 mph 17.3 mph N/A   Clear
6:56 PM 60.1 °F - 42.1 °F 51% 29.95 in 10.0 mi Variable 4.6 mph - N/A   Partly Cloudy
7:56 PM 55.0 °F - 44.1 °F 67% 29.97 in 10.0 mi WSW 8.1 mph - N/A   Overcast
8:03 PM 54.0 °F - 44.1 °F 69% 30.05 in 10.0 mi Variable 3.5 mph - N/A   Overcast
8:56 PM 51.1 °F - 44.1 °F 77% 29.98 in 10.0 mi Variable 3.5 mph - N/A   Overcast
9:56 PM 48.9 °F - 42.1 °F 77% 29.99 in 10.0 mi Calm Calm - N/A   Overcast
10:56 PM 46.9 °F - 39.0 °F 74% 29.98 in 10.0 mi SW 5.8 mph - N/A   Mostly Cloudy
11:22 PM 46.0 °F 43.9 °F 37.9 °F 73% 30.04 in 10.0 mi Variable 4.6 mph - N/A   Mostly Cloudy
11:49 PM 45.0 °F 41.8 °F 37.0 °F 74% 30.04 in 10.0 mi West 5.8 mph - N/A   Overcast
11:56 PM 45.0 °F 42.6 °F 37.9 °F 76% 29.97 in 10.0 mi Variable 4.6 mph - N/A   Overcast